Regional Weather Roundup
Issued by NWS

Home | Current Version | Previous Version | Text Only | Print | Product List | Glossary Off
Versions: 1 2 3 4 5 6 7 8 9 10 11 12 13 14 15 16 17 18 19 20 21 22 23 24 25 26 27 28 29 30 31 32 33 34 35 36 37 38 39 40 41 42 43 44 45 46 47 48 49 50

000
ASUS43 KLMK 132210
RWRKY
KENTUCKY REGIONAL WEATHER ROUNDUP
NATIONAL WEATHER SERVICE LOUISVILLE KY
600 PM EDT SUN JUL 13 2014

NOTE "FAIR" INDICATES FEW OR NO CLOUDS BELOW 12,000 FEET
WITH NO SIGNIFICANT WEATHER AND/OR OBSTRUCTIONS TO VISIBILITY.

KYZ001>023-026-027-061>063-070>075-132300-
WESTERN AND SOUTH CENTRAL KENTUCKY

CITY           SKY/WX    TMP DP  RH WIND       PRES   REMARKS
PADUCAH        SUNNY     93  74  53 SW9G17    29.94F HX 103
HENDERSON      MOSUNNY   90  75  62 SW7       29.92F HX 100
OWENSBORO      MOSUNNY   93  71  48 W14G21    29.93F HX  99
HOPKINSVILLE   SUNNY     93  70  46 SW16      29.97F HX  99
BOWLING GREEN  MOSUNNY   93  68  43 W14       29.96F HX  97
GLASGOW        MOSUNNY   91  67  45 SW9       29.97F HX  94
$$

KYZ024-025-028>034-038-045-046-053-132300-
NORTH CENTRAL KENTUCKY

CITY           SKY/WX    TMP DP  RH WIND       PRES   REMARKS
LOUISVILLE/SDF MOSUNNY   95  65  37 W15       29.92S HX  97
LOUISVILLE/LOU PTSUNNY   93  66  40 VRB7      29.92F HX  96
FORT KNOX      MOSUNNY   90  72  54 SW13G18   29.93F HX  96
$$

KYZ035>037-039>044-047>052-055>060-089>105-132300-
NORTHEAST KENTUCKY

CITY           SKY/WX    TMP DP  RH WIND       PRES   REMARKS
LEXINGTON      MOSUNNY   91  68  46 SW13G28   29.96F HX  95
COVINGTON      CLOUDY    80  70  71 W12G17    29.93F
FRANKFORT      MOSUNNY   90  71  53 SW16      29.92F HX  96
$$

KYZ054-064>069-076>088-106>120-132300-
SOUTHEAST KENTUCKY

CITY           SKY/WX    TMP DP  RH WIND       PRES   REMARKS
JACKSON        PTSUNNY   89  67  47 CALM      30.00S HX  92
LONDON         MOSUNNY   90  69  50 S12G21    30.01S HX  94
SOMERSET       PTSUNNY   90  61  37 W12       30.00F
MIDDLESBORO    PTSUNNY   88  71  57 SW5       30.03F HX  93
MONTICELLO     PTCLDY    92  69  46 SW7       30.01F HX  96
$$




USA.gov is the U.S. government's official web portal to all federal, state and local government web resources and services.